Regional Weather Roundup
Issued by NWS Wakefield, VA

Home | Current Version | Previous Version | Text Only | Print | Product List | Glossary On
Versions: 1 2 3 4 5 6 7 8 9 10 11 12 13 14 15 16 17 18 19 20 21 22 23 24 25 26 27 28 29 30 31 32 33 34 35 36 37 38 39 40 41 42 43 44 45 46 47 48 49 50
000
ASUS41 KAKQ 201413
RWRAKQ

REGIONAL WEATHER ROUNDUP
NATIONAL WEATHER SERVICE WAKEFIELD VA
900 AM EST MON NOV 20 2017

Note: "fair" indicates few or no clouds below 12,000 feet with no
significant weather and/or obstructions to visibility. * = Denotes
station may not report precipitation (e.g., rain,snow,etc.),
thunder or fog.

VAZ042-051-052>054-056-201500-
NORTHERN VIRGINIA

CITY           SKY/WX    TMP DP  RH WIND       PRES   REMARKS
WASH NATIONAL  SUNNY     42  20  41 W13       30.22R
DULLES         SUNNY     39  21  48 NW12      30.20R
FORT BELVOIR   SUNNY     41  20  42 NW7       30.21R
QUANTICO       NOT AVBL
FREDERICKSBRG* SUNNY     38  31  73 CALM      30.22R
STAFFORD*      SUNNY     38  27  64 CALM      30.25S
WARRENTON      NOT AVBL
CULPEPER*      SUNNY     40  24  51 S3        30.20S
MANASSAS*        N/A     40  22  48 NW3       30.21R
LEESBURG*      SUNNY     39  27  60 NW13      30.20R
WINCHESTER     SUNNY     34  21  60 CALM      30.17S
FRONT ROYAL*   SUNNY     36  23  60 MISG      30.16S
LURAY*         SUNNY     34  27  75 S5        30.18R
$$

VAZ048-049-060>072-079>083-201500-
CENTRAL AND SOUTH CENTRAL VIRGINIA

CITY           SKY/WX    TMP DP  RH WIND       PRES   REMARKS
RICHMOND       MOSUNNY   38  27  64 W6        30.22R
CHESTERFIELD*  NOT AVBL
PETERSBURG*    NOT AVBL
HANOVER        SUNNY     41  27  57 SW5       30.23R
TAPPAHANNOCK*    N/A    N/A N/A N/A MISG        N/A
QUINTON*       FAIR      38  28  68 CALM      30.22R
CHARLOTTSVILLE SUNNY     41  23  48 VRB6      30.20R
GORDONSVILLE*  SUNNY     38  26  62 SW5       30.20R
ORANGE*        SUNNY     37  27  65 SW5       30.20R
LOUISA*          N/A     37  24  58 W6          N/A
BUMPASS*       FAIR      39  24  53 SW6       30.21R
FARMVILLE*     SUNNY     39  30  71 SW5       30.23R
CREWE*         FAIR      40  25  56 W6        30.23R
FORT PICKETT*  NOT AVBL
CHASE CITY*    FAIR      38  27  62 W5        30.25R
CLARKSVILLE*   FAIR      37  28  70 W7        30.25S
SOUTH HILL*    SUNNY     38  28  66 W5        30.31R
LAWRENCEVILLE* FAIR      38  27  62 SW3       30.25R
EMPORIA*       SUNNY     39  27  60 W5        30.26R
$$

VAZ088>098-201500-
SOUTHEAST VIRGINIA

CITY           SKY/WX    TMP DP  RH WIND       PRES   REMARKS
NORFOLK        SUNNY     46  27  47 NW8       30.23R
VIRGINIA BEACH NOT AVBL
NORFOLK NAVAL  SUNNY     46  27  47 NW10      30.24R
WEST POINT*    SUNNY     40  28  60 W5        30.24S
SALUDA*        FAIR      41  29  62 W6        30.22R
NEWPORT NEWS   SUNNY     44  25  47 NW7       30.23R
LANGLEY AFB    SUNNY     44  27  51 NW6       30.22R
FORT EUSTIS    SUNNY     42  31  63 W7        30.21R
WILLIAMSBURG*  SUNNY     43  28  56 CALM      30.24R
HR EXEC AP*    NOT AVBL
FRANKLIN*      SUNNY     39  28  63 W6        30.25R
US460-WAKEFLD  SUNNY     40  27  59 VRB5      30.24R
$$

VAZ020-022-025-037-045-201500-
WEST CENTRAL AND SOUTHWEST VIRGINIA

CITY           SKY/WX    TMP DP  RH WIND       PRES   REMARKS
STAUNTON*      SUNNY     35  23  62 SW10      30.20R
WAYNESBORO*    SUNNY     36  20  51 SW7       30.17R
HOT SPRINGS VA SUNNY     26  14  61 W13       30.07R WCI  14
LYNCHBURG      SUNNY     38  23  55 S7        30.23R
DANVILLE       SUNNY     37  28  70 CALM      30.27R
SOUTH BOSTON*  FAIR      39  26  59 W3        30.26S
MARTINSVILLE   SUNNY     35  25  67 W3        30.29R
ROANOKE        SUNNY     38  22  52 SW6       30.24R
BLACKSBURG     SUNNY     33  22  65 W6        30.23R
DUBLIN*        SUNNY     34  23  65 SW10      30.22R
MARION*        MOSUNNY   29  25  85 W9        30.24R
HILLSVILLE*    SUNNY     31  21  66 W9        30.19R
RICHLANDS*     FAIR      30  24  79 CALM      30.22R
WISE*          SUNNY     30  28  93 CALM      30.22R
ABINGDON*      SUNNY     32  30  91 W3        30.26R
$$

MDZ021>025-VAZ099-100-201500-
SOUTHERN MARYLAND AND THE DELMARVA PENINSULA

CITY           SKY/WX    TMP DP  RH WIND       PRES   REMARKS
PATUXENT RIVER NOT AVBL
BAY BRIDGE APT SUNNY     41  23  48 W10       30.19R
LEONARDTOWN    SUNNY     41  23  48 NW6       30.22R
DOVER          SUNNY     42  29  62 W12       30.16S
GEORGETOWN     SUNNY     42  23  46 NW9       30.18R
EASTON         MOSUNNY   43  23  45 NW13G20   30.22R
CAMBRIDGE      SUNNY     43  23  45 W8G18     30.19R
SALISBURY      SUNNY     43  26  51 NW9       30.19R
OCEAN CITY     SUNNY     42  27  55 NW10      30.19R
WALLOPS ISLAND SUNNY     44  26  49 NW10      30.20R
ACCOMACK*      SUNNY     46  28  50 NW9       30.20R
$$

NCZ012>017-030>032-201500-
NORTH CENTRAL AND EASTERN NORTH CAROLINA

CITY           SKY/WX    TMP DP  RH WIND       PRES   REMARKS
ROANOKE RAPIDS FAIR      41  30  65 W5        30.26R
RALEIGH        SUNNY     40  27  59 VRB5      30.27R
ELIZABETH CITY SUNNY     42  30  62 W8        30.24R
AHOSKIE*       SUNNY     38  29  69 CALM      30.25R
EDENTON*       SUNNY     44  32  63 CALM      30.25R
CURRITUCK*     SUNNY     40  30  67 W7        30.24R
KILL DEVIL HLS NOT AVBL
MANTEO         SUNNY     46  32  58 N9        30.23S
CAPE HATTERAS  SUNNY     49  35  58 N9G18     30.24R
TARBORO*       NOT AVBL
GOLDSBORO      SUNNY     46  26  45 NW8       30.24R
WASHINGTON     MOSUNNY   43  29  58 NW7       30.27R
GREENVILLE     MOSUNNY   43  30  61 NW5       30.27R
NEW BERN       SUNNY     43  31  62 NW7       30.27R
WILMINGTON     SUNNY     46  31  55 N8        30.28R
$$

VAZ048-201500-
ELSEWHERE

CITY           SKY/WX    TMP DP  RH WIND       PRES   REMARKS
HARRISBURG PA  MOSUNNY   37  21  52 NW17      30.13R
BALTIMORE      MOSUNNY   40  22  48 W10G20    30.17R
ANNAPOLIS      NOT AVBL
ANDREWS AFB    SUNNY     40  19  43 W16       30.18S
PHILADELPHIA   MOSUNNY   40  21  46 W15       30.12R
HENDERSON NC   SUNNY     37  24  59 W3        30.25R
GREENSBORO     SUNNY     41  24  51 NW10      30.25R
ROCKY MOUNT    SUNNY     42  29  59 NW6       30.27R
$$

VAZ100-201500-
MARINE

STATION/POSITION TIME  TEMP    WIND        PRES    WAVE   SWELL
                       AIR SEA DIR/SP/G            HT/PER HT/PER
                 (UTC) (F)     (DEG/KT/KT) (MB)    (FT/S) (FT/S)
BRANDYWINE LGT   1348   41     320/ 15/ 24 1021.8R
CAPE MAY NJ      1348   42 47  320/ 20/ 26 1021.1R
LEWES DE         1348   42 50  320/ 18/ 21 1021.6R
15NM E FENWICK I 1350   44 59  290/ 19/ 25 1021.7R   5/ 6
OCEAN-CITY-INLET 1348   42 54  340/ 10/ 13 1022.5R
WACHAPREAGUE VA  1348   47 50  290/  3/  8 1022.8R
THOMAS POINT MD  1400   40 52  300/ 12/ 13   N/A
GOOSES REEF MD   1350   42     310/ 14/ 17 1024.0R
COVE POINT MD    1348   40     330/ 15/ 20 1023.3R
SOLOMONS ISLAND  1348   42 54  310/ 10/ 15 1022.6R
BISHOPS HEAD MD  1348   42 44  300/ 18/ 21 1023.1R
PINEY POINT MD   1348          360/ 11/ 14   N/A
POTOMAC MD       1350   43     350/ 14/ 16 1022.4R
CAMBRIDGE MD     1348   43 50              1023.1R
LEWISETTA VA     1348   42 49  320/  8/ 10 1023.3R
RAPPAHANNOCK LGT 1348          310/ 12/ 15 1023.3R
STINGRAY PT      1350   44     350/ 10/ 12 1023.5R
YORK RVR RNG VA  1348   43     300/  9/ 10 1023.7R
YORKTOWN VA      1348   42 54  280/  5/  6 1023.1R
JAMESTOWN VA     1350          270/  6/  8   N/A
DOMINION TERM VA 1348   43     320/ 12/ 15 1023.7R
KIPTOPEKE VA     1348      54  330/ 12/ 14   N/A
CAPE HENRY VA    1348   45     320/ 13/ 15   N/A
WILLOUBY STN VA  1348   43     310/ 10/ 12 1023.3R
S CRANEY ISL VA  1348   44     300/  6/ 10 1023.5R
CAPE HENRY BUOY  1330      59                N/A     3/ 4
1ST LANDING BUOY 1350   46     340/ 14/ 16 1023.2R
CAPE CHARLES BUO 1351      58                N/A     2/ 4
64NM E OF VA BCH 1350   50 60  310/ 16/ 19 1022.4R   6/ 7   2/11
DUCK PIER NC     1348   43 59  310/ 15/ 17 1022.8R
44100 DUCK FRF   1345      61                N/A     4/ 6
44056 DUCK FRF   1400      61                N/A     3/ 5
OREGON INLET NC  1342   46 55  310/ 12/ 18 1023.4R
HATTERAS NC      1348   46 58  330/ 17/ 19 1023.6R
DIAMOND SHLS NC  1350   50 67  330/ 16/ 19 1023.8R   4/ 8   2/ 8
CAPE LOOKOUT NC  1400          350/ 12/ 15 1024.5R
$$



USA.gov is the U.S. government's official web portal to all federal, state and local government web resources and services.